User: anonymous   Login
Location: Hylvaty SDH
(49.9612°N, 16.4057°E)
Time: 09:26:02
(UTC+01:00)
Language:

Explorer 7 - Orbit

View from above orbital plane
View from above orbital plane
View from above satellite
View from above satellite

Ground track
Ground track

The orbit data is extracted from the following two-line orbital elements,

1    22U 59009A   20022.52412129 -.00000078 +00000-0 +17773-4 0  9994
2    22 050.2843 071.4066 0139664 057.4019 304.0323 14.95024801448394
Epoch (UTC): 22 January 2020 12:34:44
Eccentricity: 0.0139664
inclination: 50.2843°
perigee height: 485 km
apogee height: 679 km
right ascension of ascending node: 71.4066°
argument of perigee: 57.4019°
revolutions per day: 14.95024801
mean anomaly at epoch: 304.0323°
orbit number at epoch: 44839

The dashed part of the orbit path shows where the satellite is in the earth's shadow,  

DLR